Location: Doverdale
(52.2833°N, 2.2000°W)
Time: 03:13:03
(UTC+00:00)

NOSS 3-4 (A) - Pass Details

Date: 29 October 2020
Orbit: 885 x 1327 km, 63.4° (Epoch: 06 November)

Event Time Altitude Azimuth Distance (km) Brightness Sun altitude
Rises 17:50:21 0° 309° (NW) 3,706 7.2 -10.5°
Reaches altitude 10° 17:52:56 10° 315° (NW) 2,812 6.4 -10.9°
Maximum altitude 17:59:26 52° 31° (NNE) 1,352 4.0 -11.9°
Enters shadow 18:05:39 14° 104° (ESE) 2,786 5.3 -12.9°
